This is the latest recevied weather packets stored in our database for station/object KK4PWJ-13. If no packets are shown the sender has not sent any weather packets the latest 10 day(s).
| Time | Temp. | Humidity | Pressure | Rain* | Wind** | Luminosity | Snow |
|---|---|---|---|---|---|---|---|
| 1777671435 | 15.56° C | 62% | 1010.9 hPa | 0 mm | - | 117 W/m² | - |
| 1777671132 | 16.11° C | 60% | 1011 hPa | 0 mm | - | 84 W/m² | - |
| 1777670828 | 16.11° C | 62% | 1011 hPa | 0 mm | - | 81 W/m² | - |
| 1777670525 | 16.11° C | 61% | 1011 hPa | 0 mm | - | 128 W/m² | - |
| 1777670221 | 16.11° C | 60% | 1011 hPa | 0 mm | - | 111 W/m² | - |
| 1777669919 | 16.11° C | 61% | 1011 hPa | 0 mm | - | 159 W/m² | - |
| 1777669616 | 16.11° C | 61% | 1011.1 hPa | 0 mm | - | 81 W/m² | - |
| 1777669008 | 16.11° C | 62% | 1011.2 hPa | 0 mm | - | 140 W/m² | - |
| 1777667795 | 17.22° C | 59% | 1011 hPa | 0 mm | - | 147 W/m² | - |
| 1777667493 | 17.78° C | 56% | 1011.1 hPa | 0 mm | - | 177 W/m² | - |
| 1777667190 | 17.78° C | 53% | 1011 hPa | 0 mm | - | 165 W/m² | - |
| 1777666887 | 17.22° C | 55% | 1011.2 hPa | 0 mm | - | 191 W/m² | - |
| 1777666584 | 17.22° C | 54% | 1011.2 hPa | 0 mm | - | 202 W/m² | - |
| 1777666280 | 17.78° C | 54% | 1011.1 hPa | 0 mm | - | 224 W/m² | - |
| 1777665977 | 17.78° C | 49% | 1011.2 hPa | 0 mm | - | 176 W/m² | - |
| 1777665675 | 18.33° C | 52% | 1011.4 hPa | 0 mm | - | 299 W/m² | - |
| 1777665372 | 18.33° C | 47% | 1011.5 hPa | 0 mm | - | 523 W/m² | - |
| 1777665068 | 17.78° C | 50% | 1011.6 hPa | 0 mm | - | 482 W/m² | - |
| 1777664156 | 18.33° C | 48% | 1011.7 hPa | 0 mm | - | 138 W/m² | - |
| 1777663551 | 18.89° C | 48% | 1011.7 hPa | 0 mm | - | 573 W/m² | - |
| 1777663249 | 18.89° C | 47% | 1011.9 hPa | 0 mm | - | 219 W/m² | - |
| 1777662946 | 18.89° C | 49% | 1011.7 hPa | 0 mm | - | 630 W/m² | - |
| 1777662643 | 18.89° C | 50% | 1012 hPa | 0 mm | - | 468 W/m² | - |
| 1777662339 | 19.44° C | 45% | 1012 hPa | 0 mm | - | 428 W/m² | - |
| 1777661427 | 18.89° C | 46% | 1012.2 hPa | 0 mm | - | 427 W/m² | - |
* Rain latest hour (hover to see other rain measurements)
** Current wind speed in m/s (hover to see current wind gust speed)